Date String (YYYY-MM-DD hh:mm:ss) UTC,Instrument flags,absolute air pressure of the measurement (hPa),sample flow rate (lpm),inlet stack bypass flow (lpm),air temperature of the measurement (°C),ambient temperature measured by the external sensor (°C),aerosol sample conditioner tube jacket temperature (°C),OPC LED temperature (°C),internal box temperature (°C),relative humidity of the measurement (%),span deviation,mass concentration of particles derived from Lorenz-Mie calculation of OPC scattering (μg/m³),mass concentration of particles derived from Lorenz-Mie calculation of OPC scattering (μg/m³),mass concentration of particles derived from Lorenz-Mie calculation of OPC scattering (μg/m³)
DateTimeUTC,F1_M11,P_M11,Q1_M11,Q2_M11,T1_M11,T2_M11,T3_M11,T4_M11,T5_M11,U1_M11,ZSPAN_M11,X0_M11,X2_M11,X1_M11
2023-10-11 15:00:00,SystemResetWarning,0817.1,4.99,000.00,029.5,028.1,000.0,037.9,031.1,13.3,0000.0,0009.00,0003.68,0003.11
2023-10-11 15:01:00,SystemResetWarning,0817.1,5.00,000.00,029.5,028.2,000.0,037.9,031.1,13.2,0000.0,0008.85,0003.68,0003.14
2023-10-11 15:02:00,SystemResetWarning,0817.1,5.00,000.00,029.5,028.2,000.0,037.9,031.1,13.1,0000.0,0008.48,0003.71,0003.17
2023-10-11 15:03:00,SystemResetWarning,0817.1,4.99,000.00,029.5,028.2,000.0,037.9,031.1,13.2,0000.0,0008.27,0003.73,0003.21
2023-10-11 15:04:00,SystemResetWarning,0817.1,5.00,000.00,029.5,028.1,000.0,037.9,031.1,13.3,0000.0,0007.84,0003.72,0003.24
2023-10-11 15:05:00,SystemResetWarning,0817.1,5.00,000.00,029.5,026.8,000.0,037.9,031.1,13.2,0000.0,0007.94,0003.74,0003.26
2023-10-11 15:06:00,SystemResetWarning,0817.0,5.00,000.00,029.4,024.8,000.0,037.8,030.8,13.3,0000.0,0007.87,0003.72,0003.25
2023-10-11 15:07:00,SystemResetWarning,0817.0,5.01,000.00,029.3,024.2,000.0,037.7,030.6,13.5,0000.0,0007.88,0003.76,0003.24
2023-10-11 15:08:00,SystemResetWarning,0817.0,5.01,000.00,029.1,024.4,000.0,037.7,030.3,13.7,0000.0,0007.85,0003.77,0003.23
2023-10-11 15:09:00,SystemResetWarning,0816.9,5.00,000.00,029.0,024.8,000.0,037.7,030.2,13.9,0000.0,0007.53,0003.75,0003.22
2023-10-11 15:10:00,SystemResetWarning,0816.9,5.00,000.00,028.9,025.3,000.0,037.6,030.3,13.6,0000.0,0008.23,0003.75,0003.22
2023-10-11 15:11:00,SystemResetWarning,0816.9,5.00,000.00,028.9,025.7,000.0,037.6,030.3,13.5,0000.0,0008.54,0003.76,0003.21
2023-10-11 15:12:00,SystemResetWarning,0816.9,5.00,000.00,028.9,026.0,000.0,037.6,030.3,13.7,0000.0,0009.01,0003.80,0003.21
2023-10-11 15:13:00,SystemResetWarning,0816.9,5.00,000.00,028.9,026.3,000.0,037.6,030.4,13.9,0000.0,0009.39,0003.81,0003.20
2023-10-11 15:14:00,SystemResetWarning,0816.9,5.00,000.00,028.9,026.6,000.0,037.6,030.4,13.9,0000.0,0009.81,0003.83,0003.19
2023-10-11 15:15:00,SystemResetWarning,0816.9,5.00,000.00,028.9,026.8,000.0,037.5,030.4,14.0,0000.0,0010.12,0003.85,0003.18
2023-10-11 15:16:00,SystemResetWarning,0816.9,5.00,000.00,028.9,027.0,000.0,037.5,030.4,13.8,0000.0,0010.47,0003.87,0003.17
2023-10-11 15:17:00,SystemResetWarning,0816.9,5.00,000.00,028.9,027.1,000.0,037.5,030.5,13.7,0000.0,0011.01,0003.91,0003.16
2023-10-11 15:18:00,SystemResetWarning,0816.9,5.00,000.00,028.9,027.2,000.0,037.5,030.5,13.9,0000.0,0011.37,0003.93,0003.17
2023-10-11 15:19:00,SystemResetWarning,0816.9,5.00,000.00,028.9,027.3,000.0,037.5,030.6,13.9,0000.0,0011.38,0003.91,0003.16
2023-10-11 15:20:00,SystemResetWarning,0816.9,5.00,000.00,028.9,027.4,000.0,037.5,030.6,13.9,0000.0,0011.92,0003.95,0003.15
2023-10-11 15:21:00,SystemResetWarning,0816.9,4.99,000.00,028.9,027.5,000.0,037.5,030.6,13.7,0000.0,0011.58,0003.98,0003.13
2023-10-11 15:22:00,SystemResetWarning,0816.9,4.99,000.00,029.0,027.6,000.0,037.5,030.6,13.4,0000.0,0011.48,0003.98,0003.13
2023-10-11 15:23:00,SystemResetWarning,0816.9,5.00,000.00,029.0,027.6,000.0,037.5,030.7,13.5,0000.0,0011.67,0004.00,0003.12
2023-10-11 15:24:00,SystemResetWarning,0816.9,5.01,000.00,029.0,027.7,000.0,037.5,030.7,13.5,0000.0,0012.24,0004.05,0003.11
2023-10-11 15:25:00,SystemResetWarning,0816.8,5.01,000.00,029.0,027.7,000.0,037.5,030.7,13.4,0000.0,0012.21,0004.12,0003.11
2023-10-11 15:26:00,SystemResetWarning,0816.9,5.00,000.00,029.1,027.8,000.0,037.5,030.7,13.7,0000.0,0012.15,0004.13,0003.10
2023-10-11 15:27:00,SystemResetWarning,0816.9,5.00,000.00,029.1,027.8,000.0,037.5,030.7,14.2,0000.0,0012.34,0004.13,0003.09
2023-10-11 15:28:00,SystemResetWarning,0816.9,5.00,000.00,029.1,027.9,000.0,037.5,030.8,14.4,0000.0,0012.48,0004.12,0003.10
2023-10-11 15:29:00,SystemResetWarning,0816.9,4.99,000.00,029.1,027.9,000.0,037.6,030.8,14.5,0000.0,0013.17,0004.14,0003.11
2023-10-11 15:30:00,SystemResetWarning,0816.9,5.00,000.00,029.2,027.9,000.0,037.6,030.8,14.5,0000.0,0013.17,0004.20,0003.13
2023-10-11 15:31:00,SystemResetWarning,0816.9,5.00,000.00,029.2,027.9,000.0,037.6,030.8,14.4,0000.0,0012.89,0004.23,0003.15
2023-10-11 15:32:00,SystemResetWarning,0816.9,5.00,000.00,029.2,028.0,000.0,037.6,030.9,14.3,0000.0,0013.23,0004.25,0003.17
2023-10-11 15:33:00,SystemResetWarning,0816.9,5.00,000.00,029.2,028.0,000.0,037.6,030.9,14.3,0000.0,0013.43,0004.30,0003.20
2023-10-11 15:34:00,SystemResetWarning,0816.9,5.00,000.00,029.3,027.9,000.0,037.6,030.9,14.1,0000.0,0012.97,0004.30,0003.22
2023-10-11 15:35:00,SystemResetWarning,0816.8,4.99,000.00,029.2,026.5,000.0,037.6,030.9,13.9,0000.0,0012.61,0004.25,0003.23
2023-10-11 15:36:00,SystemResetWarning,0816.7,5.01,000.00,029.2,025.5,000.0,037.5,030.7,13.9,0000.0,0012.79,0004.18,0003.25
2023-10-11 15:37:00,SystemResetWarning,0816.7,5.01,000.00,029.1,025.5,000.0,037.5,030.6,13.3,0000.0,0013.04,0004.18,0003.27
2023-10-11 15:38:00,SystemResetWarning,0816.7,4.99,000.00,029.0,025.7,000.0,037.5,030.4,13.4,0000.0,0012.66,0004.21,0003.29
2023-10-11 15:39:00,SystemResetWarning,0816.6,4.99,000.00,028.9,026.0,000.0,037.5,030.4,13.3,0000.0,0013.21,0004.25,0003.30
2023-10-11 15:40:00,SystemResetWarning,0816.6,5.00,000.00,028.9,026.3,000.0,037.5,030.4,13.3,0000.0,0012.22,0004.25,0003.30
2023-10-11 15:41:00,SystemResetWarning,0816.6,5.01,000.00,028.9,026.6,000.0,037.5,030.5,13.2,0000.0,0012.34,0004.24,0003.30
2023-10-11 15:42:00,SystemResetWarning,0816.6,5.01,000.00,028.9,026.8,000.0,037.5,030.5,13.3,0000.0,0012.62,0004.22,0003.30
2023-10-11 15:43:00,SystemResetWarning,0816.6,5.00,000.00,028.9,027.0,000.0,037.5,030.5,13.3,0000.0,0013.09,0004.23,0003.30
2023-10-11 15:44:00,SystemResetWarning,0816.6,4.99,000.00,028.9,027.2,000.0,037.5,030.6,13.2,0000.0,0014.32,0004.25,0003.29
2023-10-11 15:45:00,SystemResetWarning,0816.6,4.99,000.00,029.0,027.3,000.0,037.5,030.6,13.2,0000.0,0015.45,0004.32,0003.27
2023-10-11 15:46:00,SystemResetWarning,0816.6,5.00,000.00,029.0,027.5,000.0,037.5,030.6,13.3,0000.0,0015.78,0004.41,0003.26
2023-10-11 15:47:00,SystemResetWarning,0816.6,5.00,000.00,029.0,027.6,000.0,037.5,030.7,13.4,0000.0,0015.39,0004.43,0003.25
2023-10-11 15:48:00,SystemResetWarning,0816.6,5.00,000.00,029.0,027.6,000.0,037.5,030.7,13.3,0000.0,0015.46,0004.51,0003.25
2023-10-11 15:49:00,SystemResetWarning,0816.6,5.01,000.00,029.0,027.7,000.0,037.5,030.7,13.3,0000.0,0015.99,0004.57,0003.24
2023-10-11 15:50:00,SystemResetWarning,0816.7,5.00,000.00,029.1,027.8,000.0,037.5,030.7,13.4,0000.0,0016.49,0004.63,0003.24
2023-10-11 15:51:00,SystemResetWarning,0816.6,4.99,000.00,029.1,027.8,000.0,037.5,030.8,13.5,0000.0,0016.85,0004.64,0003.24
2023-10-11 15:52:00,SystemResetWarning,0816.6,4.99,000.00,029.1,027.9,000.0,037.5,030.8,13.6,0000.0,0016.81,0004.67,0003.24
2023-10-11 15:53:00,SystemResetWarning,0816.6,5.00,000.00,029.1,027.9,000.0,037.6,030.8,13.6,0000.0,0017.18,0004.71,0003.24
2023-10-11 15:54:00,SystemResetWarning,0816.6,5.00,000.00,029.2,027.9,000.0,037.6,030.8,13.7,0000.0,0016.59,0004.69,0003.24
2023-10-11 15:55:00,SystemResetWarning,0816.6,5.01,000.00,029.2,028.0,000.0,037.6,030.9,13.8,0000.0,0016.13,0004.68,0003.24
2023-10-11 15:56:00,SystemResetWarning,0816.5,5.00,000.00,029.2,028.0,000.0,037.6,030.9,13.7,0000.0,0015.07,0004.59,0003.22
2023-10-11 15:57:00,SystemResetWarning,0816.5,4.99,000.00,029.2,027.2,000.0,037.6,030.9,13.6,0000.0,0014.23,0004.48,0003.21
2023-10-11 15:58:00,SystemResetWarning,0816.4,4.99,000.00,029.1,025.1,000.0,037.5,030.6,13.5,0000.0,0014.18,0004.46,0003.20
2023-10-11 15:59:00,SystemResetWarning,0816.5,5.02,000.00,029.0,024.3,000.0,037.4,030.4,13.6,0000.0,0014.28,0004.39,0003.18
